When you browse on this site, cookies collect data to enhance your experience and personalize the content and advertising you see.
Visit our Privacy Policy to learn more. By continuing to use the site, you agree to this use of cookies and data.
  • In Latvia
  • List of Countries
  • For 7 days
  • Water Temperature
  • Weather Map
  • Weather Widgets
  • user-avatar
    Login

    Hourly Weather Saurimo

    Today, 17 November, Sunday

    Time Temperature Precipitation Wind Pressure Humidity
    00:00 +21°C° 0 mm 1 mps 667 mmHg 94%
    01:00 +21°C° 0 mm 1 mps 668 mmHg 93%
    02:00 +21°C° 0 mm 1 mps 667 mmHg 94%
    03:00 +21°C° 0 mm 1 mps 667 mmHg 94%
    04:00 +21°C° 0 mm 1 mps 667 mmHg 95%
    05:00 +22°C° 0 mm 1 mps 668 mmHg 93%
    06:00 +22°C° 0 mm 1 mps 669 mmHg 91%
    07:00 +23°C° 0 mm 2 mps 670 mmHg 88%
    08:00 +24°C° 0 mm 2 mps 669 mmHg 85%
    09:00 +25°C° 0 mm 2 mps 669 mmHg 82%
    10:00 +26°C° 0 mm 2 mps 669 mmHg 79%
    11:00 +27°C° 0.4 mm 2 mps 669 mmHg 74%
    12:00 +28°C° 0.4 mm 2 mps 668 mmHg 68%
    13:00 +29°C° 0.4 mm 3 mps 668 mmHg 63%
    14:00 +29°C° 0.6 mm 2 mps 667 mmHg 67%
    15:00 +28°C° 0.6 mm 2 mps 667 mmHg 72%
    16:00 +28°C° 0.6 mm 1 mps 666 mmHg 76%
    17:00 +26°C° 1.1 mm 1 mps 667 mmHg 81%
    18:00 +24°C° 1.1 mm 1 mps 667 mmHg 87%
    19:00 +23°C° 1.1 mm 1 mps 667 mmHg 93%
    20:00 +22°C° 1.9 mm 1 mps 668 mmHg 93%
    21:00 +22°C° 1.9 mm 1 mps 668 mmHg 93%
    22:00 +21°C° 1.9 mm 2 mps 669 mmHg 93%
    23:00 +21°C° 0.9 mm 2 mps 668 mmHg 94%

    Tomorrow, 18 November, Monday

    Time Temperature Precipitation Wind Pressure Humidity
    00:00 +20°C° 0.9 mm 2 mps 668 mmHg 95%
    01:00 +20°C° 0.9 mm 2 mps 668 mmHg 96%
    02:00 +20°C° 0.5 mm 2 mps 668 mmHg 97%
    03:00 +20°C° 0.5 mm 2 mps 668 mmHg 97%
    04:00 +20°C° 0.5 mm 2 mps 668 mmHg 97%
    05:00 +20°C° 0.1 mm 2 mps 669 mmHg 96%
    06:00 +20°C° 0.1 mm 2 mps 669 mmHg 96%
    07:00 +21°C° 0.1 mm 3 mps 670 mmHg 95%
    08:00 +21°C° 0.2 mm 2 mps 670 mmHg 95%
    09:00 +21°C° 0.2 mm 2 mps 670 mmHg 94%
    10:00 +21°C° 0.2 mm 2 mps 670 mmHg 94%
    11:00 +21°C° 0.3 mm 2 mps 670 mmHg 94%
    12:00 +20°C° 0.3 mm 3 mps 669 mmHg 94%
    13:00 +20°C° 0.3 mm 3 mps 669 mmHg 93%
    14:00 +21°C° 0 mm 3 mps 668 mmHg 89%
    15:00 +21°C° 0 mm 2 mps 668 mmHg 86%
    16:00 +23°C° 0 mm 2 mps 668 mmHg 82%
    17:00 +21°C° 0 mm 2 mps 668 mmHg 86%
    18:00 +21°C° 0 mm 1 mps 668 mmHg 91%
    19:00 +20°C° 0 mm 1 mps 669 mmHg 95%
    20:00 +20°C° 0 mm 1 mps 669 mmHg 94%
    21:00 +20°C° 0 mm 1 mps 669 mmHg 93%
    22:00 +20°C° 0 mm 1 mps 669 mmHg 91%
    23:00 +20°C° 0 mm 1 mps 669 mmHg 93%

    Day after tomorrow, 19 November, Tuesday

    Time Temperature Precipitation Wind Pressure Humidity
    00:00 +20°C° 0 mm 1 mps 669 mmHg 95%
    01:00 +19°C° 0 mm 1 mps 669 mmHg 97%
    02:00 +19°C° 0 mm 1 mps 669 mmHg 97%
    03:00 +19°C° 0 mm 1 mps 669 mmHg 98%
    04:00 +19°C° 0 mm 1 mps 668 mmHg 98%
    05:00 +20°C° 0 mm 1 mps 669 mmHg 95%
    06:00 +20°C° 0 mm 1 mps 670 mmHg 92%
    07:00 +21°C° 0 mm 1 mps 671 mmHg 89%
    08:00 +23°C° 0 mm 1 mps 671 mmHg 83%
    09:00 +25°C° 0 mm 1 mps 671 mmHg 77%
    10:00 +27°C° 0 mm 1 mps 671 mmHg 71%
    11:00 +27°C° 0.8 mm 1 mps 671 mmHg 71%
    12:00 +27°C° 0.8 mm 1 mps 670 mmHg 72%
    13:00 +28°C° 0.8 mm 1 mps 670 mmHg 73%
    14:00 +27°C° 2 mm 1 mps 669 mmHg 77%
    15:00 +26°C° 2 mm 1 mps 669 mmHg 82%
    16:00 +25°C° 2 mm 1 mps 668 mmHg 87%
    17:00 +24°C° 1.2 mm 1 mps 668 mmHg 89%
    18:00 +23°C° 1.2 mm 1 mps 669 mmHg 92%
    19:00 +21°C° 1.2 mm 2 mps 669 mmHg 95%
    20:00 +21°C° 0.1 mm 1 mps 669 mmHg 95%
    21:00 +21°C° 0.1 mm 1 mps 669 mmHg 96%
    22:00 +21°C° 0.1 mm 1 mps 669 mmHg 97%
    23:00 +21°C° 0.2 mm 1 mps 669 mmHg 97%

    20 November, Wednesday

    Time Temperature Precipitation Wind Pressure Humidity
    00:00 +20°C° 0.2 mm 1 mps 669 mmHg 97%
    01:00 +20°C° 0.2 mm 1 mps 668 mmHg 98%
    02:00 +20°C° 0.2 mm 1 mps 668 mmHg 98%
    03:00 +20°C° 0.2 mm 1 mps 668 mmHg 98%
    04:00 +20°C° 0.2 mm 1 mps 668 mmHg 98%
    05:00 +20°C° 0.1 mm 1 mps 669 mmHg 97%
    06:00 +21°C° 0.1 mm 1 mps 670 mmHg 97%
    07:00 +21°C° 0.1 mm 1 mps 670 mmHg 96%
    08:00 +22°C° 0.2 mm 1 mps 670 mmHg 93%
    09:00 +23°C° 0.2 mm 2 mps 670 mmHg 90%
    10:00 +24°C° 0.2 mm 2 mps 671 mmHg 86%
    11:00 +25°C° 1.1 mm 2 mps 670 mmHg 85%
    12:00 +25°C° 1.1 mm 2 mps 669 mmHg 83%
    13:00 +26°C° 1.1 mm 2 mps 668 mmHg 81%
    14:00 +26°C° 1.4 mm 2 mps 668 mmHg 84%
    15:00 +25°C° 1.4 mm 2 mps 668 mmHg 87%
    16:00 +25°C° 1.4 mm 2 mps 667 mmHg 89%
    17:00 +24°C° 1.2 mm 2 mps 668 mmHg 91%
    18:00 +23°C° 1.2 mm 2 mps 668 mmHg 94%
    19:00 +21°C° 1.2 mm 2 mps 669 mmHg 96%
    20:00 +20°C° 0.1 mm 2 mps 669 mmHg 96%
    21:00 +20°C° 0.1 mm 2 mps 669 mmHg 97%
    22:00 +21°C° 0.1 mm 1 mps 669 mmHg 97%
    23:00 +21°C° 0 mm 1 mps 669 mmHg 97%

    21 November, Thursday

    Time Temperature Precipitation Wind Pressure Humidity
    00:00 +20°C° 0 mm 1 mps 669 mmHg 97%
    01:00 +20°C° 0 mm 1 mps 669 mmHg 97%
    02:00 +20°C° 0 mm 1 mps 668 mmHg 97%
    03:00 +20°C° 0 mm 1 mps 668 mmHg 97%
    04:00 +20°C° 0 mm 1 mps 668 mmHg 97%
    05:00 +20°C° 0 mm 1 mps 669 mmHg 95%
    06:00 +21°C° 0 mm 1 mps 669 mmHg 93%
    07:00 +22°C° 0 mm 1 mps 670 mmHg 91%
    08:00 +23°C° 0.3 mm 1 mps 670 mmHg 88%
    09:00 +24°C° 0.3 mm 2 mps 670 mmHg 84%
    10:00 +25°C° 0.3 mm 2 mps 670 mmHg 80%
    11:00 +25°C° 1.5 mm 2 mps 670 mmHg 81%
    12:00 +26°C° 1.5 mm 2 mps 669 mmHg 81%
    13:00 +26°C° 1.5 mm 2 mps 668 mmHg 82%
    14:00 +26°C° 1.6 mm 2 mps 668 mmHg 83%
    15:00 +26°C° 1.6 mm 1 mps 668 mmHg 84%
    16:00 +25°C° 1.6 mm 1 mps 667 mmHg 85%
    17:00 +24°C° 0.6 mm 1 mps 668 mmHg 88%
    18:00 +23°C° 0.6 mm 1 mps 668 mmHg 91%
    19:00 +22°C° 0.6 mm 1 mps 668 mmHg 94%
    20:00 +21°C° 0.1 mm 1 mps 668 mmHg 95%
    21:00 +21°C° 0.1 mm 1 mps 669 mmHg 95%
    22:00 +21°C° 0.1 mm 1 mps 669 mmHg 96%
    23:00 +20°C° 0 mm 1 mps 669 mmHg 96%

    22 November, Friday

    Time Temperature Precipitation Wind Pressure Humidity
    00:00 +20°C° 0 mm 1 mps 668 mmHg 96%
    01:00 +19°C° 0 mm 1 mps 668 mmHg 96%
    02:00 +19°C° 0 mm 1 mps 668 mmHg 96%
    03:00 +19°C° 0 mm 1 mps 668 mmHg 96%
    04:00 +19°C° 0 mm 1 mps 668 mmHg 97%
    05:00 +20°C° 0.3 mm 1 mps 668 mmHg 95%
    06:00 +21°C° 0.3 mm 1 mps 669 mmHg 93%
    07:00 +22°C° 0.3 mm 1 mps 669 mmHg 92%
    08:00 +23°C° 0 mm 1 mps 670 mmHg 85%
    09:00 +25°C° 0 mm 2 mps 670 mmHg 78%
    10:00 +26°C° 0 mm 2 mps 671 mmHg 71%
    11:00 +27°C° 0 mm 2 mps 670 mmHg 68%
    12:00 +28°C° 0 mm 2 mps 669 mmHg 65%
    13:00 +29°C° 0 mm 3 mps 669 mmHg 63%
    14:00 +28°C° 0.4 mm 2 mps 668 mmHg 67%
    15:00 +28°C° 0.4 mm 2 mps 668 mmHg 72%
    16:00 +27°C° 0.4 mm 2 mps 667 mmHg 76%
    17:00 +26°C° 0.7 mm 2 mps 667 mmHg 81%
    18:00 +24°C° 0.7 mm 1 mps 667 mmHg 86%
    19:00 +23°C° 0.7 mm 1 mps 668 mmHg 91%
    20:00 +22°C° 0.9 mm 1 mps 668 mmHg 92%
    21:00 +22°C° 0.9 mm 1 mps 668 mmHg 93%
    22:00 +20°C° 0.9 mm 2 mps 668 mmHg 94%
    23:00 +20°C° 0 mm 2 mps 668 mmHg 95%
    Show more